User: anonymous   Login
Location: Unspecified
(0.0000°N, 0.0000°E)
Time: 20:09:54
(UTC+00:00)
Language:

TIANMU-1 05 - Orbit

View from above orbital plane
View from above orbital plane
View from above satellite
View from above satellite

Ground track
Ground track

The orbit is defined by the following mean orbital elements,

1 55975U          26145.58383801 +.00000000 +00000-0 +28211-3 0 00005
2 55975  97.5210 318.3052 0002993 172.6197 187.5096 15.46480089    06
Epoch (UTC): 25 May 2026 14:00:43
Eccentricity: 0.0002993
inclination: 97.5210°
perigee height: 425 km
apogee height: 429 km
right ascension of ascending node: 318.3052°
argument of perigee: 172.6197°
revolutions per day: 15.46480089
mean anomaly at epoch: 187.5096°

The dashed part of the orbit path shows where the satellite is in the earth's shadow,  

DLR